TimeEDT,TemperatureF,Dew PointF,Humidity,Sea Level PressureIn,VisibilityMPH,Wind Direction,Wind SpeedMPH,Gust SpeedMPH,PrecipitationIn,Events,Conditions,WindDirDegrees,DateUTC
12:53 AM,55.9,46.9,72,29.92,10.0,Calm,Calm,-,N/A,,Clear,0,2012-10-17 04:53:00
1:53 AM,52.0,48.0,86,29.93,10.0,Calm,Calm,-,N/A,,Clear,0,2012-10-17 05:53:00
2:53 AM,54.0,46.0,75,29.93,10.0,Calm,Calm,-,N/A,,Clear,0,2012-10-17 06:53:00
3:53 AM,52.0,46.0,80,29.92,10.0,Calm,Calm,-,N/A,,Clear,0,2012-10-17 07:53:00
4:53 AM,51.1,46.0,83,29.92,10.0,Calm,Calm,-,N/A,,Clear,0,2012-10-17 08:53:00
5:53 AM,50.0,46.0,86,29.93,10.0,Calm,Calm,-,N/A,,Clear,0,2012-10-17 09:53:00
6:53 AM,53.1,46.0,77,29.95,10.0,Calm,Calm,-,N/A,,Clear,0,2012-10-17 10:53:00
7:53 AM,52.0,46.9,83,29.96,10.0,Calm,Calm,-,N/A,,Clear,0,2012-10-17 11:53:00
8:53 AM,52.0,46.9,83,29.98,10.0,Calm,Calm,-,N/A,,Clear,0,2012-10-17 12:53:00
9:53 AM,57.9,48.0,70,30.00,10.0,Calm,Calm,-,N/A,,Clear,0,2012-10-17 13:53:00
10:53 AM,63.0,46.9,56,29.99,10.0,Calm,Calm,-,N/A,,Clear,0,2012-10-17 14:53:00
11:53 AM,69.1,46.0,44,29.99,10.0,SW,5.8,-,N/A,,Clear,220,2012-10-17 15:53:00
12:53 PM,70.0,46.0,42,29.96,10.0,SSW,6.9,-,N/A,,Clear,200,2012-10-17 16:53:00
1:53 PM,72.0,45.0,38,29.93,10.0,SW,9.2,-,N/A,,Clear,220,2012-10-17 17:53:00
2:53 PM,72.0,44.1,37,29.91,10.0,SSE,11.5,18.4,N/A,,Clear,160,2012-10-17 18:53:00
3:53 PM,73.0,44.1,35,29.90,10.0,SW,8.1,-,N/A,,Clear,230,2012-10-17 19:53:00
4:53 PM,72.0,45.0,38,29.88,10.0,SSE,8.1,-,N/A,,Clear,150,2012-10-17 20:53:00
5:53 PM,71.1,44.1,38,29.89,10.0,South,5.8,-,N/A,,Clear,170,2012-10-17 21:53:00
7:53 PM,64.9,46.9,52,29.91,10.0,Calm,Calm,-,N/A,,Clear,0,2012-10-17 23:53:00
8:53 PM,62.1,46.9,58,29.92,10.0,SE,3.5,-,N/A,,Clear,140,2012-10-18 00:53:00
9:53 PM,60.1,46.0,60,29.92,10.0,SE,5.8,-,N/A,,Clear,140,2012-10-18 01:53:00
10:53 PM,57.9,45.0,62,29.91,10.0,SSE,5.8,-,N/A,,Clear,150,2012-10-18 02:53:00
11:53 PM,57.0,45.0,64,29.90,10.0,SSE,6.9,-,N/A,,Clear,150,2012-10-18 03:53:00